{"data":{"norad_id":38098,"epoch":"2026-09-20T03:34:26.160960Z","epoch_age_seconds":48681,"freshness":"FRESH","line1":"1 38098U 12011A   26263.14891390 -.00000063  00000+0  00000+0 0  9995","line2":"2 38098   0.0177 223.3146 0001645 310.5213 310.9449  1.00270362  8141","mean_motion":1.00270362,"eccentricity":0.0001645,"inclination_deg":0.0177,"raan_deg":223.3146,"arg_perigee_deg":310.5213,"mean_anomaly_deg":310.9449,"bstar":0,"rev_number":814,"period_min":1436.117284587,"perigee_km":35780.057720434,"apogee_km":35793.930048495,"semimajor_km":42165.130884465,"source":"CELESTRAK","updated_at":"2026-09-20T09:00:35.519966Z"}}